Theta_e
284 284 283 283 283 282 282 281 281 281 282 282 282 282 283 284 286 285 285 285 285 285 286 286 286 287 287 287 288 288 288 288 284 285 288 287 284 285 287 288 290 289 290
284 283 283 283 283 282 281 280 280 280 281 281 282 284 285 285 285 285 284 285 285 285 285 285 285 287 287 287 287 287 287 286 285 284 285 286 285 286 286 286 287 286 286
283 283 283 282 280 274 272 272 276 274 275 278 283 283 284 284 284 285 285 285 285 285 286 286 286 286 285 286 286 286 286 286 287 285 284 286 285 286 287 286 285 285 285
283 282 281 280 279 275 270 279 280 276 274 278 278 278 279 282 284 284 285 285 283 283 285 287 287 286 286 286 286 285 286 286 285 284 284 284 285 287 285 286 286 285 285
280 279 277 276 272 269 267 268 274 283 273 273 274 274 276 282 284 286 285 284 282 282 284 285 286 286 286 287 286 286 285 285 284 283 283 283 285 286 284 285 285 284 283
278 277 273 271 268 269 264 264 268 272 270 269 273 272 273 282 285 288 286 280 280 282 282 284 285 285 286 288 288 289 289 285 284 283 283 282 284 285 285 285 285 283 283
277 274 272 270 270 268 264 263 267 268 267 268 269 269 269 274 284 287 285 280 279 278 279 281 283 284 284 285 287 288 288 289 289 287 285 285 285 286 287 286 283 282 280
275 273 271 270 271 265 263 265 264 266 267 268 268 266 266 272 282 286 284 274 273 274 277 281 281 283 284 285 285 285 285 285 284 283 284 285 286 287 287 287 284 278 279
276 275 273 272 273 267 267 268 266 267 270 268 269 267 268 269 280 284 281 273 276 274 275 278 280 283 284 285 281 283 281 280 282 283 284 284 284 288 289 283 281 280 278
278 277 275 274 274 270 270 267 265 266 272 274 273 268 268 270 278 283 281 277 272 274 272 274 281 283 284 284 276 277 272 276 277 276 276 277 277 277 280 281 283 283 277
278 275 274 274 275 272 270 269 269 269 271 268 271 270 268 270 270 282 282 274 271 271 272 275 278 282 283 283 282 280 278 274 277 276 275 274 273 273 273 273 275 281 278
276 275 275 275 275 274 272 273 273 274 274 271 270 271 272 271 276 280 281 280 278 272 271 273 275 281 280 281 280 280 279 276 275 274 272 270 270 271 272 272 272 272 273
275 276 275 275 275 275 274 274 275 276 274 274 274 273 272 273 272 280 280 280 278 274 275 277 279 278 277 272 278 277 270 269 268 268 269 266 269 271 272 272 274 274 272
277 276 275 275 275 274 276 276 276 275 274 274 274 273 271 272 273 273 274 272 274 271 272 268 274 274 275 272 267 268 267 266 265 263 263 264 265 266 268 269 269 269 270
276 276 276 276 275 276 276 276 276 276 277 276 276 274 271 271 274 279 277 273 268 272 262 261 263 263 264 265 263 263 264 264 263 261 261 262 263 263 264 263 263 264 266
276 276 276 277 276 277 276 275 281 281 282 283 283 277 275 279 282 284 283 283 281 278 261 260 261 261 261 259 259 260 259 260 259 259 258 259 259 260 259 261 262 261 263
277 278 277 276 276 276 275 275 275 275 283 284 284 284 283 280 283 284 283 283 280 272 260 258 259 259 259 258 257 257 259 257 254 257 257 257 258 258 258 258 260 259 258
276 277 277 276 277 276 276 275 276 275 275 276 282 284 285 285 284 284 283 278 267 266 258 258 259 258 258 258 258 257 256 256 256 256 256 254 254 255 256 255 256 255 254
274 274 276 276 274 274 274 273 274 274 274 268 265 276 278 285 284 284 283 270 268 264 261 260 261 260 259 257 255 254 254 255 254 254 254 254 253 254 253 252 254 255 254
270 272 273 274 273 272 273 273 270 273 273 273 269 272 264 270 272 271 267 266 266 266 261 260 258 257 257 256 255 254 254 254 254 254 254 253 253 254 255 253 253 255 253
268 274 276 278 277 276 276 275 271 270 271 270 272 269 274 274 275 272 271 269 271 269 265 263 263 270 270 267 262 256 256 257 256 255 255 254 252 256 253 255 253 252 254
275 276 277 277 277 276 276 276 274 274 270 269 266 265 280 271 269 271 271 272 272 271 269 272 275 275 274 270 267 268 263 262 263 263 262 260 261 257 256 256 255 255 256
276 276 276 275 275 275 275 274 274 273 273 270 264 265 265 270 271 270 270 271 273 272 274 276 273 267 264 264 264 266 266 265 265 264 264 263 261 261 262 262 262 262 261
272 273 273 274 274 274 273 273 273 272 272 272 270 267 264 263 266 269 271 274 272 269 269 268 267 266 265 263 263 263 263 264 264 264 264 263 263 264 263 263 264 263 263
266 266 266 266 267 267 267 267 267 267 267 268 268 268 269 269 268 268 268 268 268 267 267 267 267 266 266 266 265 265 266 268 265 265 263 263 263 263 263 262 263 263 263
262 262 262 263 263 263 263 263 263 263 263 264 265 265 265 265 266 266 266 266 266 265 265 265 265 265 265 266 266 268 269 270 270 268 264 263 262 262 263 263 264 262 263
Wind_Speed
7 6 6 5 5 4 3 1 2 3 4 5 5 5 6 7 7 7 8 9 10 10 10 10 12 11 8 8 7 7 9 8 12 7 3 7 6 9 8 6 5 7 8
7 7 6 5 5 4 3 0 2 3 4 5 5 6 6 7 7 8 9 9 9 10 10 10 12 8 10 9 7 8 9 8 9 14 8 7 9 10 9 11 6 3 4
7 7 6 6 5 4 3 3 2 2 4 4 4 5 6 7 7 8 9 10 9 10 11 10 11 9 10 7 8 7 7 8 7 8 7 5 6 9 10 5 3 3 3
7 7 6 6 6 5 4 3 3 3 3 4 4 3 5 6 7 9 7 7 10 10 10 8 7 8 9 10 8 8 7 6 7 6 7 9 8 8 3 6 7 1 2
7 7 7 5 4 4 4 3 5 3 3 5 4 4 5 5 5 10 5 7 8 8 8 7 7 9 14 15 8 7 6 6 6 6 5 7 8 5 4 2 2 1 1
8 8 6 6 4 6 4 4 5 3 3 4 6 3 4 5 13 15 10 4 6 7 8 8 8 9 11 15 17 18 13 7 7 5 7 8 9 6 3 3 1 1 0
9 7 7 6 6 7 4 3 5 4 1 3 6 2 3 5 12 12 11 3 4 5 5 7 9 7 9 9 11 12 11 12 14 9 9 9 10 8 6 7 2 1 1
8 8 7 7 7 5 4 5 4 3 3 3 4 4 3 4 10 11 10 3 4 5 6 7 8 9 11 11 10 4 3 2 4 4 6 9 11 10 7 5 2 4 2
11 10 10 9 8 6 6 6 5 3 2 2 3 3 2 5 8 9 6 4 4 6 6 7 9 8 17 19 8 6 4 3 5 9 11 13 15 16 9 4 3 3 1
13 13 10 10 9 9 7 6 4 3 4 3 3 4 4 5 8 7 5 1 3 4 5 6 11 13 16 15 6 6 4 4 6 6 6 9 12 12 14 4 4 3 3
8 7 8 9 10 8 6 4 3 3 2 3 4 4 4 4 5 7 6 1 2 2 3 4 5 15 15 14 12 5 5 4 5 5 5 5 6 7 8 8 8 2 2
8 8 8 9 8 6 7 5 4 5 5 4 3 4 3 4 5 5 5 4 4 1 3 3 4 12 11 13 9 12 10 6 3 4 4 5 6 7 6 6 7 8 7
7 8 8 7 8 7 8 7 4 5 4 4 4 3 4 2 2 6 5 5 3 1 2 5 8 10 11 7 13 13 8 4 4 4 4 2 3 3 5 4 5 5 10
7 7 6 8 8 7 6 6 6 6 5 5 5 5 3 2 3 2 2 2 2 1 3 3 5 6 9 7 4 7 4 3 2 2 2 3 3 3 3 3 3 5 5
6 5 7 7 8 7 9 8 9 7 8 6 7 5 5 5 5 6 4 2 2 3 2 3 3 3 3 4 3 4 4 4 4 3 2 2 3 3 3 3 2 3 4
6 6 7 7 7 7 7 7 16 16 15 17 12 8 4 7 8 8 6 4 1 5 4 2 1 1 1 2 2 3 3 3 2 2 3 3 3 3 3 4 4 4 6
8 7 6 7 7 7 7 8 8 7 17 16 17 16 14 8 13 11 8 4 3 4 2 1 2 1 1 2 2 2 2 2 3 2 2 2 2 3 4 3 3 3 3
6 7 5 5 6 6 7 7 7 7 8 7 15 15 17 16 13 11 9 5 1 2 2 3 3 3 2 2 1 1 1 2 2 2 2 1 2 2 2 2 3 3 2
4 4 5 5 4 5 5 5 5 5 6 3 1 6 8 16 14 12 11 3 3 3 3 2 3 3 3 2 2 1 0 1 1 1 2 2 1 1 1 1 2 3 4
4 6 5 4 4 4 4 5 3 6 6 5 5 5 2 4 4 4 2 3 3 3 3 3 3 3 3 3 2 2 0 1 0 0 1 1 1 1 1 2 2 2 0
2 2 5 4 4 5 4 5 4 4 5 4 6 5 12 7 7 5 6 5 5 4 4 4 4 4 3 3 3 2 2 1 1 2 1 1 1 0 1 1 2 1 3
2 1 1 2 2 2 3 3 4 5 4 4 3 3 15 5 4 5 5 5 4 4 4 5 4 3 3 3 3 3 3 3 2 2 2 2 2 1 2 2 1 1 1
3 2 2 2 2 2 1 1 2 3 3 3 2 2 2 2 4 3 4 3 4 4 5 5 4 3 2 2 2 2 3 3 2 3 3 3 2 3 3 2 2 3 3
8 8 7 6 5 4 4 3 3 3 2 2 2 1 1 2 2 2 1 2 4 4 4 4 4 5 3 2 2 1 1 1 1 2 3 2 3 3 2 2 3 3 2
9 9 9 8 8 8 8 8 8 8 8 7 6 6 6 6 6 6 6 5 5 5 5 4 4 5 5 5 2 2 2 1 3 3 1 2 3 3 3 2 3 2 2
9 10 9 8 9 8 8 8 8 8 8 7 7 7 7 7 7 7 6 6 5 5 5 4 5 6 5 3 3 2 3 3 5 5 3 2 2 2 2 3 5 2 3
Wind_Direction
167 161 158 172 173 178 195 219 293 296 303 301 299 299 290 297 297 292 287 284 280 279 275 271 270 269 267 267 267 264 278 272 279 293 309 312 299 296 304 295 283 289 299
166 158 166 167 170 189 201 166 285 296 301 301 296 287 301 304 298 295 291 288 283 284 283 275 274 276 272 271 267 264 267 265 283 289 295 293 282 290 291 287 282 260 280
161 158 164 174 174 191 209 234 258 264 281 292 289 302 313 307 303 299 296 295 296 298 291 283 282 281 282 283 277 269 267 271 270 282 292 285 287 294 289 265 257 269 294
165 163 175 180 184 195 196 211 228 240 261 271 273 286 293 302 299 300 293 303 321 316 309 299 288 277 275 275 266 266 269 275 266 278 290 288 295 290 256 277 278 189 303
166 164 189 176 164 191 201 218 254 232 270 275 272 300 300 298 308 318 314 331 321 311 308 311 300 289 277 269 271 267 255 258 264 266 277 293 294 303 289 325 288 352 6
171 184 171 173 173 208 209 222 256 235 296 309 295 306 328 322 320 340 346 329 324 330 327 326 324 309 302 299 289 275 260 254 261 261 271 273 286 300 263 271 262 255 237
174 172 180 180 194 213 191 227 239 243 173 279 289 304 313 309 319 348 357 332 319 323 327 328 332 332 323 308 296 283 280 279 274 283 280 281 283 277 280 290 237 59 84
176 179 180 185 206 206 181 223 229 212 214 232 266 296 316 295 319 341 356 332 327 320 322 328 328 332 339 345 327 271 265 313 8 338 305 292 267 266 253 262 151 105 87
188 192 190 189 200 196 207 220 236 188 185 232 237 269 288 292 316 333 8 339 330 326 327 331 334 346 358 6 360 11 41 10 338 338 347 355 359 0 219 133 153 142 91
195 197 185 187 198 198 202 198 227 225 195 176 254 224 256 277 312 336 5 320 326 326 314 320 349 1 5 13 18 6 3 340 348 358 3 6 5 357 23 2 159 167 129
180 163 174 189 201 198 183 179 193 215 224 212 220 247 242 241 290 318 341 209 261 307 320 331 339 5 1 11 16 6 9 336 360 15 13 3 9 25 8 4 8 45 120
157 171 187 196 198 188 190 195 200 195 209 217 217 260 249 254 258 289 317 329 327 306 305 300 314 9 9 13 18 21 21 13 360 56 40 17 5 5 14 25 32 54 42
164 191 194 192 195 190 193 204 202 202 202 223 221 235 250 247 264 274 295 306 339 335 302 344 10 19 28 22 29 35 31 21 23 13 38 359 336 341 352 352 26 41 54
193 200 187 195 197 193 207 201 202 198 205 213 218 234 241 274 273 273 265 293 310 19 356 339 16 34 44 46 4 21 16 32 45 97 330 313 325 352 30 22 36 9 45
195 195 203 205 200 204 215 210 210 216 195 198 214 195 186 228 229 210 212 226 222 245 87 19 13 11 4 6 1 14 12 15 30 354 44 2 352 359 1 347 32 27 81
202 203 209 207 197 205 209 231 232 227 221 230 228 200 211 218 196 214 228 254 325 184 56 74 343 351 2 322 331 327 2 360 8 6 10 12 10 7 14 15 25 42 91
222 218 205 209 201 202 202 215 229 236 234 232 226 224 220 209 226 229 221 239 131 121 116 186 204 212 265 303 322 345 332 330 313 8 40 34 21 24 36 20 77 46 39
231 228 216 210 214 204 208 216 215 208 209 219 232 220 222 223 220 220 216 130 133 34 126 172 208 211 217 212 218 221 276 329 16 11 29 22 36 105 53 53 13 100 58
246 228 220 221 207 200 197 209 212 217 215 203 93 235 216 220 221 218 216 171 185 205 190 205 202 197 209 203 211 227 203 308 314 338 342 0 6 81 71 46 96 88 122
262 243 221 214 205 198 201 205 195 212 217 214 203 214 145 107 193 200 193 172 182 200 180 188 199 199 208 194 182 179 230 316 314 268 277 297 346 10 106 154 159 131 46
269 254 237 224 207 204 201 214 209 195 209 203 222 184 189 184 198 189 197 201 201 198 185 180 184 204 187 180 167 164 177 242 238 248 256 260 177 210 155 115 126 96 138
307 284 240 233 197 169 205 213 220 226 223 221 230 222 215 198 183 187 201 202 189 187 178 183 187 192 186 188 185 185 196 225 229 217 232 202 205 202 156 130 125 113 120
0 9 16 10 18 342 297 204 216 227 244 243 224 209 243 193 176 182 194 188 180 188 195 196 160 124 106 103 116 155 177 215 214 199 212 203 192 190 185 189 182 181 185
26 31 34 31 30 34 29 22 20 17 7 13 13 19 35 71 93 101 115 91 75 61 60 61 80 111 108 87 70 50 89 151 170 224 208 193 210 209 182 183 189 195 168
34 36 38 34 32 31 34 34 36 38 39 38 40 45 49 55 57 55 59 68 74 75 69 71 76 88 88 98 103 156 224 202 205 215 193 196 222 212 193 187 179 180 169
41 43 42 40 40 38 40 41 40 38 39 37 40 43 45 50 50 51 53 62 68 68 69 61 63 66 63 49 357 25 325 288 236 191 175 175 194 221 201 210 207 169 178